Time,TemperatureF,DewpointF,PressureIn,WindDirection,WindDirectionDegrees,WindSpeedMPH,WindSpeedGustMPH,Humidity,HourlyPrecipIn,Conditions,Clouds,dailyrainin,SoftwareType,DateUTC
2013-01-18 00:03:00,36.1,32.3,22.05,NE,37,0.0,0.0,86,0.00,,---,0.00,VWS V13.01,2013-01-18 08:03:00,
2013-01-18 00:08:00,36.0,32.2,22.05,NE,37,0.0,0.0,86,0.00,,---,0.00,VWS V13.01,2013-01-18 08:08:00,
2013-01-18 00:13:00,35.9,32.4,22.05,NE,37,0.0,0.0,87,0.00,,---,0.00,VWS V13.01,2013-01-18 08:13:00,
2013-01-18 00:18:00,35.9,32.4,22.05,NE,37,0.0,0.0,87,0.00,,---,0.00,VWS V13.01,2013-01-18 08:18:00,
2013-01-18 00:23:00,35.9,32.4,22.05,NE,37,0.0,0.0,87,0.00,,---,0.00,VWS V13.01,2013-01-18 08:23:00,
2013-01-18 00:28:00,35.7,32.2,22.05,NE,37,0.0,0.0,87,0.00,,---,0.00,VWS V13.01,2013-01-18 08:28:00,
2013-01-18 00:33:00,35.6,32.1,22.05,NE,37,0.0,0.0,87,0.00,,---,0.00,VWS V13.01,2013-01-18 08:33:00,
2013-01-18 00:38:00,35.5,32.0,22.06,NE,37,0.0,0.0,87,0.00,,---,0.00,VWS V13.01,2013-01-18 08:38:00,
2013-01-18 00:43:00,35.3,31.8,22.06,NE,37,0.0,0.0,87,0.00,,---,0.00,VWS V13.01,2013-01-18 08:43:00,
2013-01-18 00:48:00,35.3,32.1,22.06,NE,37,0.0,0.0,88,0.00,,---,0.00,VWS V13.01,2013-01-18 08:48:00,
2013-01-18 00:53:00,35.4,32.2,22.05,NE,37,0.0,0.0,88,0.00,,---,0.00,VWS V13.01,2013-01-18 08:53:00,
2013-01-18 00:58:00,35.4,32.2,22.06,NE,37,0.0,0.0,88,0.00,,---,0.00,VWS V13.01,2013-01-18 08:58:00,
2013-01-18 01:03:00,35.2,31.7,22.05,NE,37,0.0,0.0,87,0.00,,---,0.00,VWS V13.01,2013-01-18 09:03:00,
2013-01-18 01:08:00,35.1,31.6,22.06,NE,37,0.0,0.0,87,0.00,,---,0.00,VWS V13.01,2013-01-18 09:08:00,
2013-01-18 01:13:00,34.9,31.4,22.05,NE,37,0.0,0.0,87,0.00,,---,0.00,VWS V13.01,2013-01-18 09:13:00,
2013-01-18 01:19:00,35.0,31.8,22.06,NE,37,0.0,0.0,88,0.00,,---,0.00,VWS V13.01,2013-01-18 09:19:00,
2013-01-18 01:24:00,34.9,31.4,22.06,NE,37,0.0,0.0,87,0.00,,---,0.00,VWS V13.01,2013-01-18 09:24:00,
2013-01-18 01:29:00,34.7,31.2,22.06,NE,37,0.0,0.0,87,0.00,,---,0.00,VWS V13.01,2013-01-18 09:29:00,
2013-01-18 01:34:00,34.6,31.1,22.06,NE,37,0.0,0.0,87,0.00,,---,0.00,VWS V13.01,2013-01-18 09:34:00,
2013-01-18 01:39:00,34.6,31.1,22.06,NE,37,0.0,0.0,87,0.00,,---,0.00,VWS V13.01,2013-01-18 09:39:00,
2013-01-18 01:44:00,34.5,31.3,22.06,NE,37,0.0,0.0,88,0.00,,---,0.00,VWS V13.01,2013-01-18 09:44:00,
2013-01-18 01:49:00,34.3,31.1,22.06,NE,37,0.0,0.0,88,0.00,,---,0.00,VWS V13.01,2013-01-18 09:49:00,
2013-01-18 01:54:00,34.3,31.1,22.06,NE,37,0.0,0.0,88,0.00,,---,0.00,VWS V13.01,2013-01-18 09:54:00,
2013-01-18 01:59:00,34.2,31.0,22.06,NE,37,0.0,0.0,88,0.00,,---,0.00,VWS V13.01,2013-01-18 09:59:00,
2013-01-18 02:04:00,34.2,31.0,22.06,NE,37,0.0,0.0,88,0.00,,---,0.00,VWS V13.01,2013-01-18 10:04:00,
2013-01-18 02:09:00,34.1,30.9,22.06,NE,37,0.0,0.0,88,0.00,,---,0.00,VWS V13.01,2013-01-18 10:09:00,
2013-01-18 02:14:00,34.0,30.8,22.06,NE,37,0.0,0.0,88,0.00,,---,0.00,VWS V13.01,2013-01-18 10:14:00,
2013-01-18 02:19:00,34.0,30.8,22.05,NE,37,0.0,0.0,88,0.00,,---,0.00,VWS V13.01,2013-01-18 10:19:00,
2013-01-18 02:24:00,33.9,30.7,22.06,NE,37,0.0,0.0,88,0.00,,---,0.00,VWS V13.01,2013-01-18 10:24:00,
2013-01-18 02:29:00,34.0,30.8,22.05,NE,37,0.0,0.0,88,0.00,,---,0.00,VWS V13.01,2013-01-18 10:29:00,
2013-01-18 02:34:00,33.9,30.7,22.05,NE,37,0.0,0.0,88,0.00,,---,0.00,VWS V13.01,2013-01-18 10:34:00,
2013-01-18 02:39:00,33.9,30.7,22.05,NE,37,0.0,0.0,88,0.00,,---,0.00,VWS V13.01,2013-01-18 10:39:00,
2013-01-18 02:44:00,33.8,30.6,22.06,NE,37,0.0,0.0,88,0.00,,---,0.00,VWS V13.01,2013-01-18 10:44:00,
2013-01-18 02:49:00,33.7,30.8,22.05,NE,37,0.0,0.0,89,0.00,,---,0.00,VWS V13.01,2013-01-18 10:49:00,
2013-01-18 02:54:00,33.5,30.6,22.05,NE,37,0.0,0.0,89,0.00,,---,0.00,VWS V13.01,2013-01-18 10:54:00,
2013-01-18 02:59:00,33.5,30.6,22.06,NE,37,0.0,0.0,89,0.00,,---,0.00,VWS V13.01,2013-01-18 10:59:00,
2013-01-18 03:04:00,33.4,30.5,22.06,NE,37,0.0,0.0,89,0.00,,---,0.00,VWS V13.01,2013-01-18 11:04:00,
2013-01-18 03:09:00,33.4,30.5,22.05,NE,37,0.0,0.0,89,0.00,,---,0.00,VWS V13.01,2013-01-18 11:09:00,
2013-01-18 03:14:00,33.3,30.4,22.05,NE,37,0.0,0.0,89,0.00,,---,0.00,VWS V13.01,2013-01-18 11:14:00,
2013-01-18 03:19:00,33.2,30.0,22.05,NE,37,0.0,0.0,88,0.00,,---,0.00,VWS V13.01,2013-01-18 11:19:00,
2013-01-18 03:24:00,33.2,30.0,22.05,NE,37,0.0,0.0,88,0.00,,---,0.00,VWS V13.01,2013-01-18 11:24:00,
2013-01-18 03:29:00,33.1,30.2,22.05,NE,37,0.0,0.0,89,0.00,,---,0.00,VWS V13.01,2013-01-18 11:29:00,
2013-01-18 03:34:00,33.0,30.1,22.05,NE,37,0.0,0.0,89,0.00,,---,0.00,VWS V13.01,2013-01-18 11:34:00,
2013-01-18 03:39:00,32.9,30.0,22.05,NE,37,0.0,0.0,89,0.00,,---,0.00,VWS V13.01,2013-01-18 11:39:00,
2013-01-18 03:44:00,32.9,30.0,22.05,NE,37,0.0,0.0,89,0.00,,---,0.00,VWS V13.01,2013-01-18 11:44:00,
2013-01-18 03:49:00,32.8,29.9,22.05,NE,37,0.0,0.0,89,0.00,,---,0.00,VWS V13.01,2013-01-18 11:49:00,
2013-01-18 03:54:00,32.8,29.9,22.05,NE,37,0.0,0.0,89,0.00,,---,0.00,VWS V13.01,2013-01-18 11:54:00,
2013-01-18 03:59:00,32.8,30.2,22.05,NE,37,0.0,0.0,90,0.00,,---,0.00,VWS V13.01,2013-01-18 11:59:00,
2013-01-18 04:04:00,32.8,29.9,22.06,NE,37,0.0,0.0,89,0.00,,---,0.00,VWS V13.01,2013-01-18 12:04:00,
2013-01-18 04:09:00,32.8,29.9,22.06,NE,37,0.0,0.0,89,0.00,,---,0.00,VWS V13.01,2013-01-18 12:09:00,
2013-01-18 04:14:00,32.8,30.2,22.06,NE,37,0.0,0.0,90,0.00,,---,0.00,VWS V13.01,2013-01-18 12:14:00,
2013-01-18 04:19:00,32.6,29.7,22.05,NE,37,0.0,0.0,89,0.00,,---,0.00,VWS V13.01,2013-01-18 12:19:00,
2013-01-18 04:24:00,32.5,29.9,22.05,NE,37,0.0,0.0,90,0.00,,---,0.00,VWS V13.01,2013-01-18 12:24:00,
2013-01-18 04:29:00,32.6,30.0,22.05,NE,37,0.0,0.0,90,0.00,,---,0.00,VWS V13.01,2013-01-18 12:29:00,
2013-01-18 04:34:00,32.8,30.2,22.05,NE,37,0.0,0.0,90,0.00,,---,0.00,VWS V13.01,2013-01-18 12:34:00,
2013-01-18 04:39:00,32.7,29.8,22.05,NE,37,0.0,0.0,89,0.00,,---,0.00,VWS V13.01,2013-01-18 12:39:00,
2013-01-18 04:44:00,32.8,29.9,22.06,NE,37,0.0,0.0,89,0.00,,---,0.00,VWS V13.01,2013-01-18 12:44:00,
2013-01-18 04:49:00,32.8,29.9,22.06,NE,37,0.0,0.0,89,0.00,,---,0.00,VWS V13.01,2013-01-18 12:49:00,
2013-01-18 04:54:00,32.6,29.7,22.06,NE,37,0.0,0.0,89,0.00,,---,0.00,VWS V13.01,2013-01-18 12:54:00,
2013-01-18 04:59:00,32.5,29.6,22.06,NE,37,0.0,0.0,89,0.00,,---,0.00,VWS V13.01,2013-01-18 12:59:00,
2013-01-18 05:04:00,32.5,29.6,22.06,NE,37,0.0,0.0,89,0.00,,---,0.00,VWS V13.01,2013-01-18 13:04:00,
2013-01-18 05:09:00,32.7,29.8,22.06,NE,37,0.0,0.0,89,0.00,,---,0.00,VWS V13.01,2013-01-18 13:09:00,
2013-01-18 05:14:00,32.6,29.7,22.06,NE,37,0.0,0.0,89,0.00,,---,0.00,VWS V13.01,2013-01-18 13:14:00,
2013-01-18 05:19:00,32.5,29.6,22.06,NE,37,0.0,0.0,89,0.00,,---,0.00,VWS V13.01,2013-01-18 13:19:00,
2013-01-18 05:24:00,32.4,29.5,22.06,NE,37,0.0,0.0,89,0.00,,---,0.00,VWS V13.01,2013-01-18 13:24:00,
2013-01-18 05:29:00,32.2,29.3,22.07,NE,37,0.0,0.0,89,0.00,,---,0.00,VWS V13.01,2013-01-18 13:29:00,
2013-01-18 05:34:00,32.0,29.1,22.06,NE,37,0.0,0.0,89,0.00,,---,0.00,VWS V13.01,2013-01-18 13:34:00,
2013-01-18 05:39:00,32.0,29.4,22.06,NE,37,0.0,0.0,90,0.00,,---,0.00,VWS V13.01,2013-01-18 13:39:00,
2013-01-18 05:44:00,32.0,29.1,22.06,NE,37,0.0,0.0,89,0.00,,---,0.00,VWS V13.01,2013-01-18 13:44:00,
2013-01-18 05:49:00,32.0,29.1,22.06,NE,37,0.0,0.0,89,0.00,,---,0.00,VWS V13.01,2013-01-18 13:49:00,
2013-01-18 05:54:00,31.9,29.3,22.06,NE,37,0.0,0.0,90,0.00,,---,0.00,VWS V13.01,2013-01-18 13:54:00,
2013-01-18 05:59:00,31.9,29.3,22.06,NE,37,0.0,0.0,90,0.00,,---,0.00,VWS V13.01,2013-01-18 13:59:00,
2013-01-18 06:05:00,31.8,29.2,22.05,NE,37,0.0,0.0,90,0.00,,---,0.00,VWS V13.01,2013-01-18 14:05:00,
2013-01-18 06:10:00,31.8,29.2,22.06,NE,37,0.0,0.0,90,0.00,,---,0.00,VWS V13.01,2013-01-18 14:10:00,
2013-01-18 06:15:00,32.0,29.4,22.06,NE,37,0.0,0.0,90,0.00,,---,0.00,VWS V13.01,2013-01-18 14:15:00,
2013-01-18 06:20:00,32.1,29.8,22.06,NE,37,0.0,0.0,91,0.00,,---,0.00,VWS V13.01,2013-01-18 14:20:00,
2013-01-18 06:25:00,32.2,30.1,22.06,NE,37,0.0,0.0,92,0.00,,---,0.00,VWS V13.01,2013-01-18 14:25:00,
2013-01-18 06:30:00,32.1,29.8,22.06,NE,37,0.0,0.0,91,0.00,,---,0.00,VWS V13.01,2013-01-18 14:30:00,
2013-01-18 06:35:00,32.2,29.9,22.07,NE,37,0.0,0.0,91,0.00,,---,0.00,VWS V13.01,2013-01-18 14:35:00,
2013-01-18 06:40:00,32.2,29.9,22.07,NE,37,0.0,0.0,91,0.00,,---,0.00,VWS V13.01,2013-01-18 14:40:00,
2013-01-18 06:45:00,32.0,29.4,22.06,NE,37,0.0,0.0,90,0.00,,---,0.00,VWS V13.01,2013-01-18 14:45:00,
2013-01-18 06:50:00,31.9,29.6,22.07,NE,37,0.0,0.0,91,0.00,,---,0.00,VWS V13.01,2013-01-18 14:50:00,
2013-01-18 06:55:00,31.7,29.4,22.07,NE,37,0.0,0.0,91,0.00,,---,0.00,VWS V13.01,2013-01-18 14:55:00,
2013-01-18 07:00:00,31.7,29.4,22.07,NE,37,0.0,0.0,91,0.00,,---,0.00,VWS V13.01,2013-01-18 15:00:00,
2013-01-18 07:05:00,31.6,29.3,22.07,NE,37,0.0,0.0,91,0.00,,---,0.00,VWS V13.01,2013-01-18 15:05:00,
2013-01-18 07:10:00,31.5,29.2,22.08,NE,37,0.0,0.0,91,0.00,,---,0.00,VWS V13.01,2013-01-18 15:10:00,
2013-01-18 07:15:00,31.3,29.0,22.07,NE,37,0.0,0.0,91,0.00,,---,0.00,VWS V13.01,2013-01-18 15:15:00,
2013-01-18 07:20:00,31.1,28.8,22.07,NE,37,0.0,0.0,91,0.00,,---,0.00,VWS V13.01,2013-01-18 15:20:00,
2013-01-18 07:25:00,31.1,28.8,22.07,NE,37,0.0,0.0,91,0.00,,---,0.00,VWS V13.01,2013-01-18 15:25:00,
2013-01-18 07:30:00,31.2,28.9,22.08,NE,37,0.0,0.0,91,0.00,,---,0.00,VWS V13.01,2013-01-18 15:30:00,
2013-01-18 07:35:00,31.2,29.1,22.08,NE,37,0.0,0.0,92,0.00,,---,0.00,VWS V13.01,2013-01-18 15:35:00,
2013-01-18 07:40:00,31.2,29.1,22.08,NE,37,0.0,0.0,92,0.00,,---,0.00,VWS V13.01,2013-01-18 15:40:00,
2013-01-18 07:45:00,31.1,29.0,22.08,NE,37,0.0,0.0,92,0.00,,---,0.00,VWS V13.01,2013-01-18 15:45:00,
2013-01-18 07:50:00,31.4,29.6,22.08,NE,37,0.0,0.0,93,0.00,,---,0.00,VWS V13.01,2013-01-18 15:50:00,
2013-01-18 07:55:00,31.5,29.5,22.08,NE,37,0.0,0.0,92,0.00,,---,0.00,VWS V13.01,2013-01-18 15:55:00,
2013-01-18 08:00:00,31.6,29.5,22.08,NE,37,0.0,0.0,92,0.00,,---,0.00,VWS V13.01,2013-01-18 16:00:00,
2013-01-18 08:05:00,31.7,29.6,22.08,NE,37,0.0,0.0,92,0.00,,---,0.00,VWS V13.01,2013-01-18 16:05:00,
2013-01-18 08:10:00,32.1,30.3,22.09,NE,37,0.0,0.0,93,0.00,,---,0.00,VWS V13.01,2013-01-18 16:10:00,
2013-01-18 08:15:00,32.6,30.8,22.09,NE,37,0.0,0.0,93,0.00,,---,0.00,VWS V13.01,2013-01-18 16:15:00,
2013-01-18 08:20:00,33.2,31.1,22.09,NE,37,0.0,0.0,92,0.00,,---,0.00,VWS V13.01,2013-01-18 16:20:00,
2013-01-18 08:25:00,33.6,31.5,22.09,NE,37,0.0,0.0,92,0.00,,---,0.00,VWS V13.01,2013-01-18 16:25:00,
2013-01-18 08:30:00,34.1,32.0,22.09,NE,37,0.0,0.0,92,0.00,,---,0.00,VWS V13.01,2013-01-18 16:30:00,
2013-01-18 08:35:00,34.6,32.2,22.09,NE,37,0.0,0.0,91,0.00,,---,0.00,VWS V13.01,2013-01-18 16:35:00,
2013-01-18 08:40:00,35.0,32.6,22.09,NE,37,0.0,0.0,91,0.00,,---,0.00,VWS V13.01,2013-01-18 16:40:00,
2013-01-18 08:45:00,35.5,33.4,22.09,NE,37,0.0,0.0,92,0.00,,---,0.00,VWS V13.01,2013-01-18 16:45:00,
2013-01-18 08:50:00,36.3,34.5,22.09,NE,37,0.0,0.0,93,0.00,,---,0.00,VWS V13.01,2013-01-18 16:50:00,
2013-01-18 08:55:00,36.9,34.8,22.10,NE,37,0.0,0.0,92,0.00,,---,0.00,VWS V13.01,2013-01-18 16:55:00,
2013-01-18 09:00:00,37.6,35.5,22.09,NE,37,0.0,0.0,92,0.00,,---,0.00,VWS V13.01,2013-01-18 17:00:00,
2013-01-18 09:05:00,38.3,35.9,22.09,NE,37,0.0,0.0,91,0.00,,---,0.00,VWS V13.01,2013-01-18 17:05:00,
2013-01-18 09:10:00,39.1,36.4,22.10,NE,37,0.0,0.0,90,0.00,,---,0.00,VWS V13.01,2013-01-18 17:10:00,
2013-01-18 09:15:00,39.9,36.9,22.09,NE,37,0.0,0.0,89,0.00,,---,0.00,VWS V13.01,2013-01-18 17:15:00,
2013-01-18 09:20:00,40.5,37.5,22.09,NE,37,0.0,0.0,89,0.00,,---,0.00,VWS V13.01,2013-01-18 17:20:00,
2013-01-18 09:25:00,40.9,37.6,22.09,NE,37,0.0,0.0,88,0.00,,---,0.00,VWS V13.01,2013-01-18 17:25:00,
2013-01-18 09:30:00,41.2,37.6,22.09,NE,37,0.0,0.0,87,0.00,,---,0.00,VWS V13.01,2013-01-18 17:30:00,
2013-01-18 09:35:00,41.6,37.7,22.09,NE,37,0.0,0.0,86,0.00,,---,0.00,VWS V13.01,2013-01-18 17:35:00,
2013-01-18 09:40:00,42.0,38.1,22.10,NE,37,0.0,0.0,86,0.00,,---,0.00,VWS V13.01,2013-01-18 17:40:00,
2013-01-18 09:46:00,42.5,38.3,22.10,NE,37,0.0,0.0,85,0.00,,---,0.00,VWS V13.01,2013-01-18 17:46:00,
2013-01-18 09:51:00,42.8,38.3,22.10,NE,37,0.0,0.0,84,0.00,,---,0.00,VWS V13.01,2013-01-18 17:51:00,
2013-01-18 09:56:00,43.2,38.7,22.10,NE,37,0.0,0.0,84,0.00,,---,0.00,VWS V13.01,2013-01-18 17:56:00,
2013-01-18 10:01:00,43.6,38.8,22.09,NE,37,0.0,0.0,83,0.00,,---,0.00,VWS V13.01,2013-01-18 18:01:00,
2013-01-18 10:06:00,44.1,38.7,22.10,NE,37,0.0,0.0,81,0.00,,---,0.00,VWS V13.01,2013-01-18 18:06:00,
2013-01-18 10:11:00,44.5,38.7,22.09,NE,37,0.0,0.0,80,0.00,,---,0.00,VWS V13.01,2013-01-18 18:11:00,
2013-01-18 10:16:00,45.0,39.2,22.10,NE,37,0.0,0.0,80,0.00,,---,0.00,VWS V13.01,2013-01-18 18:16:00,
2013-01-18 10:21:00,45.5,39.4,22.09,NE,37,0.0,0.0,79,0.00,,---,0.00,VWS V13.01,2013-01-18 18:21:00,
2013-01-18 10:26:00,46.0,39.5,22.09,NE,37,0.0,0.0,78,0.00,,---,0.00,VWS V13.01,2013-01-18 18:26:00,
2013-01-18 10:31:00,46.3,39.8,22.09,NE,37,0.0,0.0,78,0.00,,---,0.00,VWS V13.01,2013-01-18 18:31:00,
2013-01-18 10:36:00,46.7,39.9,22.09,NE,37,0.0,0.0,77,0.00,,---,0.00,VWS V13.01,2013-01-18 18:36:00,
2013-01-18 10:41:00,47.2,40.0,22.09,NE,37,0.0,0.0,76,0.00,,---,0.00,VWS V13.01,2013-01-18 18:41:00,
2013-01-18 10:46:00,47.8,41.0,22.08,NE,37,0.0,0.0,77,0.00,,---,0.00,VWS V13.01,2013-01-18 18:46:00,
2013-01-18 10:51:00,48.3,40.4,22.08,NE,37,0.0,0.0,74,0.00,,---,0.00,VWS V13.01,2013-01-18 18:51:00,
2013-01-18 10:56:00,48.7,40.5,22.08,NE,37,0.0,0.0,73,0.00,,---,0.00,VWS V13.01,2013-01-18 18:56:00,
2013-01-18 11:01:00,49.2,40.9,22.07,NE,37,0.0,0.0,73,0.00,,---,0.00,VWS V13.01,2013-01-18 19:01:00,
2013-01-18 11:06:00,49.5,40.1,22.07,NE,37,0.0,0.0,70,0.00,,---,0.00,VWS V13.01,2013-01-18 19:06:00,
2013-01-18 11:11:00,49.9,40.5,22.07,NE,37,0.0,0.0,70,0.00,,---,0.00,VWS V13.01,2013-01-18 19:11:00,
2013-01-18 11:16:00,50.4,41.0,22.07,NE,37,0.0,0.0,70,0.00,,---,0.00,VWS V13.01,2013-01-18 19:16:00,
2013-01-18 11:21:00,50.6,41.2,22.06,NE,37,0.0,0.0,70,0.00,,---,0.00,VWS V13.01,2013-01-18 19:21:00,
2013-01-18 11:26:00,51.0,41.6,22.06,NE,37,0.0,0.0,70,0.00,,---,0.00,VWS V13.01,2013-01-18 19:26:00,
2013-01-18 11:31:00,51.5,42.4,22.06,NE,37,0.0,0.0,71,0.00,,---,0.00,VWS V13.01,2013-01-18 19:31:00,
2013-01-18 11:36:00,51.7,41.5,22.05,NE,37,0.0,0.0,68,0.00,,---,0.00,VWS V13.01,2013-01-18 19:36:00,
2013-01-18 11:41:00,51.9,41.3,22.05,NE,37,0.0,0.0,67,0.00,,---,0.00,VWS V13.01,2013-01-18 19:41:00,
2013-01-18 11:46:00,52.2,41.2,22.04,NE,37,0.0,0.0,66,0.00,,---,0.00,VWS V13.01,2013-01-18 19:46:00,
2013-01-18 11:51:00,52.4,41.0,22.04,NE,37,0.0,0.0,65,0.00,,---,0.00,VWS V13.01,2013-01-18 19:51:00,
2013-01-18 11:56:00,52.6,41.2,22.04,NE,37,0.0,0.0,65,0.00,,---,0.00,VWS V13.01,2013-01-18 19:56:00,
2013-01-18 12:01:00,52.9,40.7,22.03,NE,37,0.0,0.0,63,0.00,,---,0.00,VWS V13.01,2013-01-18 20:01:00,
2013-01-18 12:06:00,53.2,40.1,22.03,NE,37,0.0,0.0,61,0.00,,---,0.00,VWS V13.01,2013-01-18 20:06:00,
2013-01-18 12:11:00,53.5,40.8,22.02,NE,37,0.0,0.0,62,0.00,,---,0.00,VWS V13.01,2013-01-18 20:11:00,
2013-01-18 12:16:00,53.9,40.8,22.02,NE,37,0.0,0.0,61,0.00,,---,0.00,VWS V13.01,2013-01-18 20:16:00,
2013-01-18 12:21:00,54.2,41.1,22.01,NE,37,0.0,0.0,61,0.00,,---,0.00,VWS V13.01,2013-01-18 20:21:00,
2013-01-18 12:26:00,54.3,41.6,22.01,NE,37,0.0,0.0,62,0.00,,---,0.00,VWS V13.01,2013-01-18 20:26:00,
2013-01-18 12:31:00,54.7,41.1,22.01,NE,37,0.0,0.0,60,0.00,,---,0.00,VWS V13.01,2013-01-18 20:31:00,
2013-01-18 12:36:00,55.0,41.0,22.01,NNE,32,0.0,0.0,59,0.00,,---,0.00,VWS V13.01,2013-01-18 20:36:00,
2013-01-18 12:41:00,55.2,41.1,22.00,NNE,32,0.0,0.0,59,0.00,,---,0.00,VWS V13.01,2013-01-18 20:41:00,
2013-01-18 12:46:00,55.4,41.3,22.00,NNE,30,0.0,0.0,59,0.00,,---,0.00,VWS V13.01,2013-01-18 20:46:00,
2013-01-18 12:51:00,55.8,41.7,22.00,NNE,30,0.0,0.0,59,0.00,,---,0.00,VWS V13.01,2013-01-18 20:51:00,
2013-01-18 12:56:00,56.1,42.8,22.00,NNE,30,0.0,0.0,61,0.00,,---,0.00,VWS V13.01,2013-01-18 20:56:00,
2013-01-18 13:01:00,56.3,42.2,22.00,NNE,30,0.0,0.0,59,0.00,,---,0.00,VWS V13.01,2013-01-18 21:01:00,
2013-01-18 13:06:00,56.6,42.5,21.99,NNE,26,0.0,0.0,59,0.00,,---,0.00,VWS V13.01,2013-01-18 21:06:00,
2013-01-18 13:11:00,56.8,42.6,21.99,NNE,21,0.0,0.0,59,0.00,,---,0.00,VWS V13.01,2013-01-18 21:11:00,
2013-01-18 13:16:00,57.0,43.3,21.99,NNE,20,0.0,0.0,60,0.00,,---,0.00,VWS V13.01,2013-01-18 21:16:00,
2013-01-18 13:21:00,57.1,43.8,21.99,NNE,20,0.0,0.0,61,0.00,,---,0.00,VWS V13.01,2013-01-18 21:21:00,
2013-01-18 13:26:00,57.4,43.6,21.99,NNE,20,0.0,0.0,60,0.00,,---,0.00,VWS V13.01,2013-01-18 21:26:00,
2013-01-18 13:31:00,57.6,43.0,21.99,NNE,20,0.0,0.0,58,0.00,,---,0.00,VWS V13.01,2013-01-18 21:31:00,
2013-01-18 13:36:00,57.6,42.5,21.98,NNE,20,0.0,0.0,57,0.00,,---,0.00,VWS V13.01,2013-01-18 21:36:00,
2013-01-18 13:41:00,57.8,41.8,21.98,NNE,19,0.0,0.0,55,0.00,,---,0.00,VWS V13.01,2013-01-18 21:41:00,
2013-01-18 13:46:00,57.9,41.8,21.98,NNE,13,0.0,0.0,55,0.00,,---,0.00,VWS V13.01,2013-01-18 21:46:00,
2013-01-18 13:51:00,58.1,41.1,21.98,North,11,0.0,0.0,53,0.00,,---,0.00,VWS V13.01,2013-01-18 21:51:00,
2013-01-18 13:56:00,58.2,40.7,21.97,North,5,0.0,0.0,52,0.00,,---,0.00,VWS V13.01,2013-01-18 21:56:00,
2013-01-18 14:01:00,58.4,40.4,21.98,North,0,0.0,0.0,51,0.00,,---,0.00,VWS V13.01,2013-01-18 22:01:00,
2013-01-18 14:07:00,58.5,39.9,21.98,North,1,0.0,0.0,50,0.00,,---,0.00,VWS V13.01,2013-01-18 22:07:00,
2013-01-18 14:12:00,58.6,39.5,21.97,North,0,0.0,0.0,49,0.00,,---,0.00,VWS V13.01,2013-01-18 22:12:00,
2013-01-18 14:17:00,58.7,39.6,21.97,North,0,0.0,0.0,49,0.00,,---,0.00,VWS V13.01,2013-01-18 22:17:00,
2013-01-18 14:22:00,58.9,39.3,21.97,North,0,0.0,0.0,48,0.00,,---,0.00,VWS V13.01,2013-01-18 22:22:00,
2013-01-18 14:27:00,58.9,39.3,21.97,North,0,0.0,0.0,48,0.00,,---,0.00,VWS V13.01,2013-01-18 22:27:00,
2013-01-18 14:32:00,59.0,38.8,21.96,North,0,0.0,0.0,47,0.00,,---,0.00,VWS V13.01,2013-01-18 22:32:00,
2013-01-18 14:37:00,59.1,38.9,21.97,North,0,0.0,0.0,47,0.00,,---,0.00,VWS V13.01,2013-01-18 22:37:00,
2013-01-18 14:42:00,59.4,38.6,21.97,North,0,0.0,0.0,46,0.00,,---,0.00,VWS V13.01,2013-01-18 22:42:00,
2013-01-18 14:47:00,59.3,38.0,21.96,North,0,0.0,0.0,45,0.00,,---,0.00,VWS V13.01,2013-01-18 22:47:00,
2013-01-18 14:52:00,59.4,38.1,21.96,North,0,0.0,0.0,45,0.00,,---,0.00,VWS V13.01,2013-01-18 22:52:00,
2013-01-18 14:57:00,59.5,37.6,21.96,North,359,0.0,0.0,44,0.00,,---,0.00,VWS V13.01,2013-01-18 22:57:00,
2013-01-18 15:02:00,59.7,38.3,21.96,North,359,0.0,0.0,45,0.00,,---,0.00,VWS V13.01,2013-01-18 23:02:00,
2013-01-18 15:07:00,59.7,37.8,21.96,North,359,0.0,0.0,44,0.00,,---,0.00,VWS V13.01,2013-01-18 23:07:00,
2013-01-18 15:12:00,59.6,37.7,21.96,North,359,0.0,0.0,44,0.00,,---,0.00,VWS V13.01,2013-01-18 23:12:00,
2013-01-18 15:17:00,59.6,37.7,21.96,North,358,0.0,0.0,44,0.00,,---,0.00,VWS V13.01,2013-01-18 23:17:00,
2013-01-18 15:22:00,59.7,37.8,21.96,North,358,0.0,0.0,44,0.00,,---,0.00,VWS V13.01,2013-01-18 23:22:00,
2013-01-18 15:27:00,59.6,37.7,21.96,North,358,0.0,0.0,44,0.00,,---,0.00,VWS V13.01,2013-01-18 23:27:00,
2013-01-18 15:32:00,59.6,37.7,21.96,North,358,0.0,0.0,44,0.00,,---,0.00,VWS V13.01,2013-01-18 23:32:00,
2013-01-18 15:37:00,59.6,37.1,21.96,North,358,0.0,0.0,43,0.00,,---,0.00,VWS V13.01,2013-01-18 23:37:00,
2013-01-18 15:42:00,59.6,37.7,21.96,North,358,0.0,0.0,44,0.00,,---,0.00,VWS V13.01,2013-01-18 23:42:00,
2013-01-18 15:47:00,59.6,37.7,21.96,North,358,0.0,0.0,44,0.00,,---,0.00,VWS V13.01,2013-01-18 23:47:00,
2013-01-18 15:52:00,59.5,37.6,21.96,North,358,0.0,0.0,44,0.00,,---,0.00,VWS V13.01,2013-01-18 23:52:00,
2013-01-18 15:57:00,59.5,38.2,21.96,North,358,0.0,0.0,45,0.00,,---,0.00,VWS V13.01,2013-01-18 23:57:00,
2013-01-18 16:02:00,59.4,38.6,21.96,North,358,0.0,0.0,46,0.00,,---,0.00,VWS V13.01,2013-01-19 00:02:00,
2013-01-18 16:07:00,59.3,39.1,21.96,North,358,0.0,0.0,47,0.00,,---,0.00,VWS V13.01,2013-01-19 00:07:00,
2013-01-18 16:12:00,59.1,39.5,21.96,North,358,0.0,0.0,48,0.00,,---,0.00,VWS V13.01,2013-01-19 00:12:00,
2013-01-18 16:17:00,58.9,39.8,21.96,North,358,0.0,0.0,49,0.00,,---,0.00,VWS V13.01,2013-01-19 00:17:00,
2013-01-18 16:22:00,58.7,40.1,21.96,North,358,0.0,0.0,50,0.00,,---,0.00,VWS V13.01,2013-01-19 00:22:00,
2013-01-18 16:27:00,58.6,39.5,21.96,North,358,0.0,0.0,49,0.00,,---,0.00,VWS V13.01,2013-01-19 00:27:00,
2013-01-18 16:32:00,58.4,39.3,21.97,North,358,0.0,0.0,49,0.00,,---,0.00,VWS V13.01,2013-01-19 00:32:00,
2013-01-18 16:37:00,58.2,39.2,21.97,North,358,0.0,0.0,49,0.00,,---,0.00,VWS V13.01,2013-01-19 00:37:00,
2013-01-18 16:42:00,57.9,39.4,21.96,North,358,0.0,0.0,50,0.00,,---,0.00,VWS V13.01,2013-01-19 00:42:00,
2013-01-18 16:47:00,57.7,39.7,21.97,North,358,0.0,0.0,51,0.00,,---,0.00,VWS V13.01,2013-01-19 00:47:00,
2013-01-18 16:53:00,57.3,39.3,21.97,North,358,0.0,0.0,51,0.00,,---,0.00,VWS V13.01,2013-01-19 00:53:00,
2013-01-18 16:58:00,57.0,38.6,21.97,North,358,0.0,0.0,50,0.00,,---,0.00,VWS V13.01,2013-01-19 00:58:00,
2013-01-18 17:03:00,56.7,38.8,21.97,North,358,0.0,0.0,51,0.00,,---,0.00,VWS V13.01,2013-01-19 01:03:00,
2013-01-18 17:08:00,56.2,37.8,21.97,North,358,0.0,0.0,50,0.00,,---,0.00,VWS V13.01,2013-01-19 01:08:00,
2013-01-18 17:13:00,55.9,38.0,21.97,North,358,0.0,0.0,51,0.00,,---,0.00,VWS V13.01,2013-01-19 01:13:00,
2013-01-18 17:18:00,55.5,37.7,21.97,North,358,0.0,0.0,51,0.00,,---,0.00,VWS V13.01,2013-01-19 01:18:00,
2013-01-18 17:23:00,55.1,37.3,21.98,North,358,0.0,0.0,51,0.00,,---,0.00,VWS V13.01,2013-01-19 01:23:00,
2013-01-18 17:28:00,54.8,37.5,21.98,North,358,0.0,0.0,52,0.00,,---,0.00,VWS V13.01,2013-01-19 01:28:00,
2013-01-18 17:33:00,54.5,37.7,21.98,North,358,0.0,0.0,53,0.00,,---,0.00,VWS V13.01,2013-01-19 01:33:00,
2013-01-18 17:38:00,53.8,38.0,21.98,North,358,0.0,0.0,55,0.00,,---,0.00,VWS V13.01,2013-01-19 01:38:00,
2013-01-18 17:43:00,53.2,37.5,21.98,North,358,0.0,0.0,55,0.00,,---,0.00,VWS V13.01,2013-01-19 01:43:00,
2013-01-18 17:48:00,52.3,37.1,21.98,North,358,0.0,0.0,56,0.00,,---,0.00,VWS V13.01,2013-01-19 01:48:00,
2013-01-18 17:53:00,51.6,36.9,21.98,North,358,0.0,0.0,57,0.00,,---,0.00,VWS V13.01,2013-01-19 01:53:00,
2013-01-18 17:58:00,50.8,36.1,21.98,North,358,0.0,0.0,57,0.00,,---,0.00,VWS V13.01,2013-01-19 01:58:00,
2013-01-18 18:03:00,50.2,36.4,21.98,North,358,0.0,0.0,59,0.00,,---,0.00,VWS V13.01,2013-01-19 02:03:00,
2013-01-18 18:09:00,49.8,36.5,21.98,North,358,0.0,0.0,60,0.00,,---,0.00,VWS V13.01,2013-01-19 02:09:00,
2013-01-18 18:14:00,49.3,36.0,21.98,North,358,0.0,0.0,60,0.00,,---,0.00,VWS V13.01,2013-01-19 02:14:00,
2013-01-18 18:19:00,48.8,36.0,21.98,North,358,0.0,0.0,61,0.00,,---,0.00,VWS V13.01,2013-01-19 02:19:00,
2013-01-18 18:24:00,48.4,35.6,21.98,North,358,0.0,0.0,61,0.00,,---,0.00,VWS V13.01,2013-01-19 02:24:00,
2013-01-18 18:29:00,48.0,35.6,21.99,North,358,0.0,0.0,62,0.00,,---,0.00,VWS V13.01,2013-01-19 02:29:00,
2013-01-18 18:34:00,47.6,36.0,21.99,North,358,0.0,0.0,64,0.00,,---,0.00,VWS V13.01,2013-01-19 02:34:00,
2013-01-18 18:39:00,47.1,36.0,21.99,North,358,0.0,0.0,65,0.00,,---,0.00,VWS V13.01,2013-01-19 02:39:00,
2013-01-18 18:44:00,46.8,35.7,21.99,North,358,0.0,0.0,65,0.00,,---,0.00,VWS V13.01,2013-01-19 02:44:00,
2013-01-18 18:49:00,46.6,35.5,21.99,North,358,0.0,0.0,65,0.00,,---,0.00,VWS V13.01,2013-01-19 02:49:00,
2013-01-18 18:54:00,46.1,35.4,21.99,North,358,0.0,0.0,66,0.00,,---,0.00,VWS V13.01,2013-01-19 02:54:00,
2013-01-18 18:59:00,45.6,35.3,21.99,North,358,0.0,0.0,67,0.00,,---,0.00,VWS V13.01,2013-01-19 02:59:00,
2013-01-18 19:04:00,45.4,35.1,21.99,North,358,0.0,0.0,67,0.00,,---,0.00,VWS V13.01,2013-01-19 03:04:00,
2013-01-18 19:09:00,45.3,35.4,21.99,North,358,0.0,0.0,68,0.00,,---,0.00,VWS V13.01,2013-01-19 03:09:00,
2013-01-18 19:14:00,45.2,35.7,21.99,North,358,0.0,0.0,69,0.00,,---,0.00,VWS V13.01,2013-01-19 03:14:00,
2013-01-18 19:19:00,45.0,35.5,22.00,North,358,0.0,0.0,69,0.00,,---,0.00,VWS V13.01,2013-01-19 03:19:00,
2013-01-18 19:24:00,44.7,35.2,22.00,North,358,0.0,0.0,69,0.00,,---,0.00,VWS V13.01,2013-01-19 03:24:00,
2013-01-18 19:29:00,44.1,35.0,22.00,North,358,0.0,0.0,70,0.00,,---,0.00,VWS V13.01,2013-01-19 03:29:00,
2013-01-18 19:34:00,43.7,35.3,22.00,North,358,0.0,0.0,72,0.00,,---,0.00,VWS V13.01,2013-01-19 03:34:00,
2013-01-18 19:39:00,43.7,34.9,22.00,North,358,0.0,0.0,71,0.00,,---,0.00,VWS V13.01,2013-01-19 03:39:00,
2013-01-18 19:45:00,43.6,35.2,22.00,North,358,0.0,0.0,72,0.00,,---,0.00,VWS V13.01,2013-01-19 03:45:00,
2013-01-18 19:50:00,43.3,34.5,22.00,North,358,0.0,0.0,71,0.00,,---,0.00,VWS V13.01,2013-01-19 03:50:00,
2013-01-18 19:55:00,42.9,34.5,22.00,North,358,0.0,0.0,72,0.00,,---,0.00,VWS V13.01,2013-01-19 03:55:00,
2013-01-18 20:00:00,42.8,34.1,22.00,North,358,0.0,0.0,71,0.00,,---,0.00,VWS V13.01,2013-01-19 04:00:00,
2013-01-18 20:05:00,42.7,34.7,22.00,North,358,0.0,0.0,73,0.00,,---,0.00,VWS V13.01,2013-01-19 04:05:00,
2013-01-18 20:10:00,42.8,35.1,22.00,North,358,0.0,0.0,74,0.00,,---,0.00,VWS V13.01,2013-01-19 04:10:00,
2013-01-18 20:15:00,42.7,35.0,22.00,North,358,0.0,0.0,74,0.00,,---,0.00,VWS V13.01,2013-01-19 04:15:00,
2013-01-18 20:20:00,42.4,34.7,22.00,North,358,0.0,0.0,74,0.00,,---,0.00,VWS V13.01,2013-01-19 04:20:00,
2013-01-18 20:25:00,42.3,34.6,22.00,North,358,0.0,0.0,74,0.00,,---,0.00,VWS V13.01,2013-01-19 04:25:00,
2013-01-18 20:30:00,42.2,34.5,22.01,North,358,0.0,0.0,74,0.00,,---,0.00,VWS V13.01,2013-01-19 04:30:00,
2013-01-18 20:35:00,41.8,34.5,22.01,North,358,0.0,0.0,75,0.00,,---,0.00,VWS V13.01,2013-01-19 04:35:00,
2013-01-18 20:40:00,41.7,34.7,22.00,North,358,0.0,0.0,76,0.00,,---,0.00,VWS V13.01,2013-01-19 04:40:00,
2013-01-18 20:45:00,41.6,33.9,22.01,North,358,0.0,0.0,74,0.00,,---,0.00,VWS V13.01,2013-01-19 04:45:00,
2013-01-18 20:50:00,41.4,34.1,22.01,North,358,0.0,0.0,75,0.00,,---,0.00,VWS V13.01,2013-01-19 04:50:00,
2013-01-18 20:55:00,41.3,34.3,22.01,North,358,0.0,0.0,76,0.00,,---,0.00,VWS V13.01,2013-01-19 04:55:00,
2013-01-18 21:00:00,41.1,34.1,22.01,North,358,0.0,0.0,76,0.00,,---,0.00,VWS V13.01,2013-01-19 05:00:00,
2013-01-18 21:04:00,41.0,34.0,22.01,North,358,0.0,0.0,76,0.00,,---,0.00,VWS V13.01,2013-01-19 05:04:00,
2013-01-18 21:06:00,40.9,34.3,22.01,North,358,0.0,0.0,77,0.00,,---,0.00,VWS V13.01,2013-01-19 05:06:00,
2013-01-18 21:07:00,40.8,33.8,22.01,North,358,0.0,0.0,76,0.00,,---,0.00,VWS V13.01,2013-01-19 05:07:00,
2013-01-18 21:12:00,40.7,34.4,22.01,North,358,0.0,0.0,78,0.00,,---,0.00,VWS V13.01,2013-01-19 05:12:00,
2013-01-18 21:17:00,40.6,34.3,22.01,North,358,0.0,0.0,78,0.00,,---,0.00,VWS V13.01,2013-01-19 05:17:00,
2013-01-18 21:22:00,40.5,34.2,22.01,North,358,0.0,0.0,78,0.00,,---,0.00,VWS V13.01,2013-01-19 05:22:00,
2013-01-18 21:27:00,40.3,34.0,22.01,North,358,0.0,0.0,78,0.00,,---,0.00,VWS V13.01,2013-01-19 05:27:00,
2013-01-18 21:32:00,40.0,33.7,22.02,North,358,0.0,0.0,78,0.00,,---,0.00,VWS V13.01,2013-01-19 05:32:00,
2013-01-18 21:37:00,40.0,34.0,22.02,North,358,0.0,0.0,79,0.00,,---,0.00,VWS V13.01,2013-01-19 05:37:00,
2013-01-18 21:42:00,39.8,33.5,22.02,North,358,0.0,0.0,78,0.00,,---,0.00,VWS V13.01,2013-01-19 05:42:00,
2013-01-18 21:47:00,39.7,33.4,22.01,North,358,0.0,0.0,78,0.00,,---,0.00,VWS V13.01,2013-01-19 05:47:00,
2013-01-18 21:52:00,39.4,33.1,22.02,North,358,0.0,0.0,78,0.00,,---,0.00,VWS V13.01,2013-01-19 05:52:00,
2013-01-18 21:57:00,39.3,33.3,22.02,North,358,0.0,0.0,79,0.00,,---,0.00,VWS V13.01,2013-01-19 05:57:00,
2013-01-18 22:02:00,39.2,33.2,22.02,North,358,0.0,0.0,79,0.00,,---,0.00,VWS V13.01,2013-01-19 06:02:00,
2013-01-18 22:07:00,38.9,33.0,22.02,North,358,0.0,0.0,79,0.00,,---,0.00,VWS V13.01,2013-01-19 06:07:00,
2013-01-18 22:12:00,38.8,33.2,22.02,North,358,0.0,0.0,80,0.00,,---,0.00,VWS V13.01,2013-01-19 06:12:00,
2013-01-18 22:17:00,38.9,33.6,22.02,North,358,0.0,0.0,81,0.00,,---,0.00,VWS V13.01,2013-01-19 06:17:00,
2013-01-18 22:23:00,38.8,33.5,22.02,North,358,0.0,0.0,81,0.00,,---,0.00,VWS V13.01,2013-01-19 06:23:00,
2013-01-18 22:28:00,38.4,32.8,22.02,North,358,0.0,0.0,80,0.00,,---,0.00,VWS V13.01,2013-01-19 06:28:00,
2013-01-18 22:33:00,38.2,32.9,22.02,North,358,0.0,0.0,81,0.00,,---,0.00,VWS V13.01,2013-01-19 06:33:00,
2013-01-18 22:38:00,38.0,32.4,22.02,North,358,0.0,0.0,80,0.00,,---,0.00,VWS V13.01,2013-01-19 06:38:00,
2013-01-18 22:43:00,38.1,33.1,22.03,North,358,0.0,0.0,82,0.00,,---,0.00,VWS V13.01,2013-01-19 06:43:00,
2013-01-18 22:48:00,38.0,32.7,22.03,North,358,0.0,0.0,81,0.00,,---,0.00,VWS V13.01,2013-01-19 06:48:00,
2013-01-18 22:53:00,37.8,32.8,22.03,North,358,0.0,0.0,82,0.00,,---,0.00,VWS V13.01,2013-01-19 06:53:00,
2013-01-18 22:58:00,37.7,32.7,22.03,North,358,0.0,0.0,82,0.00,,---,0.00,VWS V13.01,2013-01-19 06:58:00,
2013-01-18 23:03:00,37.7,32.7,22.03,North,358,0.0,0.0,82,0.00,,---,0.00,VWS V13.01,2013-01-19 07:03:00,
2013-01-18 23:08:00,37.6,32.6,22.03,North,358,0.0,0.0,82,0.00,,---,0.00,VWS V13.01,2013-01-19 07:08:00,
2013-01-18 23:13:00,37.4,32.4,22.03,North,358,0.0,0.0,82,0.00,,---,0.00,VWS V13.01,2013-01-19 07:13:00,
2013-01-18 23:19:00,37.3,32.3,22.03,North,358,0.0,0.0,82,0.00,,---,0.00,VWS V13.01,2013-01-19 07:19:00,
2013-01-18 23:24:00,37.2,32.5,22.02,North,358,0.0,0.0,83,0.00,,---,0.00,VWS V13.01,2013-01-19 07:24:00,
2013-01-18 23:29:00,37.0,32.3,22.03,North,358,0.0,0.0,83,0.00,,---,0.00,VWS V13.01,2013-01-19 07:29:00,
2013-01-18 23:34:00,37.0,32.3,22.03,North,358,0.0,0.0,83,0.00,,---,0.00,VWS V13.01,2013-01-19 07:34:00,
2013-01-18 23:39:00,37.0,32.3,22.03,North,358,0.0,0.0,83,0.00,,---,0.00,VWS V13.01,2013-01-19 07:39:00,
2013-01-18 23:44:00,37.0,32.3,22.03,North,358,0.0,0.0,83,0.00,,---,0.00,VWS V13.01,2013-01-19 07:44:00,
2013-01-18 23:49:00,36.8,32.1,22.03,North,358,0.0,0.0,83,0.00,,---,0.00,VWS V13.01,2013-01-19 07:49:00,
2013-01-18 23:54:00,36.7,32.0,22.03,North,358,0.0,0.0,83,0.00,,---,0.00,VWS V13.01,2013-01-19 07:54:00,
2013-01-18 23:59:00,36.6,31.9,22.03,North,358,0.0,0.0,83,0.00,,---,0.00,VWS V13.01,2013-01-19 07:59:00,